Regional Weather Roundup
Issued by NWS Sioux Falls, SD

Home | Current Version | Previous Version | Text Only | Print | Product List | Glossary Off
Versions: 1 2 3 4 5 6 7 8 9 10 11 12 13 14 15 16 17 18 19 20 21 22 23 24 25 26 27 28 29 30 31 32 33 34 35 36 37 38 39 40 41 42 43 44 45 46 47 48 49 50

000
ASUS43 KFSD 290010
RWRFSD

WEATHER ROUNDUP FOR SE SOUTH DAKOTA/SW MINNESOTA/NW IOWA
NATIONAL WEATHER SERVICE SIOUX FALLS SD
700 PM CDT FRI AUG 28 2015

NOTE: "FAIR" INDICATES FEW OR NO CLOUDS BELOW 12,000 FEET WITH NO
SIGNIFICANT WEATHER AND OR OBSTRUCTIONS TO VISIBILITY.


SDZ038>040-050-052>070-290100-
SOUTHEAST SOUTH DAKOTA

CITY           SKY/WX    TMP DP  RH WIND       PRES   REMARKS
BROOKINGS      MOSUNNY   72  61  68 E8        30.01R
CHAMBERLAIN    SUNNY     74  67  79 SW5       29.98S
6HR MIN TEMP:  71; 6HR MAX TEMP:  76; 6HR PCP:  0.01;

HURON          SUNNY     76  65  68 SE5       29.94S
6HR MIN TEMP:  75; 6HR MAX TEMP:  81;

MADISON        FAIR      68  66  94 E7        29.99R
MITCHELL       SUNNY     75  66  73 E3        29.96S
6HR MIN TEMP:  74; 6HR MAX TEMP:  80;

SIOUX FALLS    CLOUDY    69  61  75 NE10      29.97R
6HR MIN TEMP:  69; 6HR MAX TEMP:  72;

WINNER         FAIR      77  64  64 SE5       29.99S
YANKTON        SUNNY     70  63  78 NE5       29.95R
$$

MNZ071-072-080-081-089-090-097-098-290100-
SOUTHWEST MINNESOTA

CITY           SKY/WX    TMP DP  RH WIND       PRES   REMARKS
FAIRMONT       CLOUDY    63  54  72 E14       29.96F
JACKSON        CLOUDY    63  57  82 E14       29.98S
LUVERNE        CLOUDY    64  57  77 E7        29.99R
MARSHALL       MOSUNNY   68  57  68 SE6       30.01R
6HR MIN TEMP:  66; 6HR MAX TEMP:  75;

MONTEVIDEO     SUNNY     72  63  73 S5        30.00S
PIPESTONE      CLOUDY    64  59  82 E8        30.00R
REDWOOD FALLS  MOSUNNY   68  60  75 SE8       29.98S
TRACY          CLOUDY    67  60  78 SE6       29.99S
WINDOM         CLOUDY    64  55  72 E9        29.99R
WORTHINGTON    CLOUDY    63  55  77 E12       29.98R
$$

IAZ001>003-012>014-020>022-031-032-NEZ013-014-SDZ071-290100-
NORTHWEST IOWA

CITY           SKY/WX    TMP DP  RH WIND       PRES   REMARKS
CHEROKEE       CLOUDY    62  62 100 N12       29.93R
DENISON        CLOUDY    68  66  94 N14G25    29.86R
ESTHERVILLE    CLOUDY    60  57  89 E9        29.96S
LE MARS        CLOUDY    63  61  94 NE10      29.95R
ORANGE CITY    CLOUDY    63  59  88 NE5       29.96R
SHELDON        CLOUDY    61  59  94 NE13      29.95S
SIOUX CITY     CLOUDY    65  59  81 N13       29.93R
6HR MIN TEMP:  65; 6HR MAX TEMP:  71;

SPENCER        FOG       61  57  87 NE10      29.95F VSB 1/4
6HR MIN TEMP:  61; 6HR MAX TEMP:  63;

STORM LAKE     CLOUDY    61  61 100 NE16      29.92R FOG
$$

ABBREVIATIONS USED IN REMARKS
   TC - TEMPERATURE IN CELSIUS
  WCI - WIND CHILL INDEX
   HX - HEAT INDEX
  VSB - VISIBILITY



USA.gov is the U.S. government's official web portal to all federal, state and local government web resources and services.